Regional Weather Roundup
Issued by NWS

Home | Current Version | Previous Version | Graphics & Text | Print | Product List | Glossary On
Versions: 1 2 3 4 5 6 7 8 9 10 11 12 13 14 15 16 17 18 19 20 21 22 23 24 25 26 27 28 29 30 31 32 33 34 35 36 37 38 39 40 41 42 43 44 45 46 47 48 49 50
000
ASUS43 KTOP 042308
RWRKS

WEATHER ROUNDUP FOR KANSAS
NATIONAL WEATHER SERVICE GOODLAND KS
600 PM CDT MON MAY 04 2015

NOTE:  "FAIR" INDICATES FEW OR NO CLOUDS BELOW 12,000 FEET WITH NO
SIGNIFICANT WEATHER AND/OR OBSTRUCTIONS TO VISIBILITY.

KSZ001>006-013>018-027>032-041>047-050000-
NORTHWEST KANSAS

CITY           SKY/WX    TMP DP  RH WIND       PRES   REMARKS
GOODLAND       PTSUNNY   63  49  60 NE12      30.04S
HAYS           CLOUDY    66  57  72 NE8       29.97F
HILL CITY      PTSUNNY   68  55  63 N14       30.01R
RUSSELL        CLOUDY    66  60  81 N7        29.95F THUNDER
$$

KSZ061>065-074>080-084>089-050000-
SOUTHWEST KANSAS

CITY           SKY/WX    TMP DP  RH WIND       PRES   REMARKS
DODGE CITY     SUNNY     79  51  37 SE18      29.94R
ELKHART          N/A     61  48  62 SW12        N/A
GARDEN CITY    PTSUNNY   80  50  34 SE18      29.93R
GREAT BEND     PTSUNNY   70  59  68 NE10      29.93F
LIBERAL        CLOUDY    63  46  55 SE10G32   30.01R THUNDER
PRATT          MOSUNNY   77  63  61 S17G23    29.94F THUNDER
$$

KSZ066>073-081>083-090>101-050000-
SOUTHEAST KANSAS

CITY           SKY/WX    TMP DP  RH WIND       PRES   REMARKS
CHANUTE        SUNNY     80  61  52 S22G29    29.98F
COFFEYVILLE    SUNNY     80  59  48 S16G26    29.99F
HUTCHINSON     PTSUNNY   82  60  47 S20       29.92F
MEDICINE LODGE   N/A     76  64  66 S8        29.92F
NEWTON         PTSUNNY   79  57  47 S18G25    29.96S
PARSONS        MOSUNNY   81  61  50 S9G24     30.00F
WICHITA INTL   PTSUNNY   82  59  45 S26G32    29.93F
WICHITA JABRA  MOSUNNY   82  61  48 S21G31    29.94F
WICHITA MCCONL MOSUNNY   82  61  47 S21G31    29.94F
WINFIELD       MOSUNNY   81  59  47 S18G25    29.96F
$$

KSZ007>012-019>026-033>040-048>060-102>105-050000-
NORTHEAST KANSAS

CITY           SKY/WX    TMP DP  RH WIND       PRES   REMARKS
CONCORDIA      PTSUNNY   69  60  73 N14       29.97R
EMPORIA        MOSUNNY   80  59  48 S17G30    29.95S
LAWRENCE       LGT RAIN  79  61  53 S14G22    29.96R
MANHATTAN      TSTM      64  62  93 MISG      29.98F FOG
MARYSVILLE     CLOUDY    63  61  94 E14       30.00R
OLATHE IND     PTSUNNY   80  60  50 S20G28    29.98S
OLATHE EXE     PTSUNNY   79  62  56 S14G24    29.96F
SALINA         PTSUNNY   80  61  52 SW10      29.92R THUNDER
TOPEKA BILLARD PTSUNNY   81  60  48 VRB6      29.97R
TOPEKA FORBES  PTSUNNY   81  59  47 S14G22    29.95R
$$


USA.gov is the U.S. government's official web portal to all federal, state and local government web resources and services.